QPF
0.00 0.00 0.00 0.00 0.00 0.00 0.00 0.00 0.00 0.00 0.00 0.00 0.00 0.00 0.00 0.00 0.00 0.00 0.00 0.00 0.00 0.00 0.00 0.00 0.00 0.00 0.00 0.00 0.00 0.00 0.00 0.00 0.00 0.00 0.00 0.00 0.00 0.00 0.00 0.00 0.00 0.00 0.00 0.00
0.00 0.00 0.00 0.00 0.00 0.00 0.00 0.00 0.00 0.00 0.00 0.00 0.00 0.00 0.00 0.00 0.00 0.00 0.00 0.00 0.00 0.00 0.00 0.00 0.00 0.00 0.00 0.00 0.00 0.00 0.00 0.00 0.00 0.00 0.00 0.00 0.00 0.00 0.00 0.00 0.00 0.00 0.00 0.00
0.00 0.00 0.00 0.00 0.00 0.00 0.00 0.00 0.00 0.00 0.00 0.00 0.00 0.00 0.00 0.00 0.00 0.00 0.00 0.00 0.00 0.00 0.00 0.00 0.00 0.00 0.00 0.00 0.00 0.00 0.00 0.00 0.00 0.00 0.00 0.00 0.00 0.00 0.00 0.00 0.00 0.00 0.00 0.00
0.00 0.00 0.00 0.00 0.00 0.00 0.00 0.00 0.00 0.00 0.00 0.00 0.00 0.00 0.00 0.00 0.00 0.00 0.00 0.00 0.00 0.00 0.00 0.00 0.00 0.00 0.00 0.00 0.00 0.00 0.00 0.00 0.00 0.00 0.00 0.00 0.00 0.00 0.00 0.00 0.00 0.00 0.00 0.00
0.00 0.00 0.00 0.00 0.00 0.00 0.00 0.00 0.00 0.00 0.00 0.00 0.00 0.00 0.00 0.00 0.00 0.00 0.00 0.00 0.00 0.00 0.00 0.00 0.00 0.00 0.00 0.00 0.00 0.00 0.00 0.00 0.00 0.00 0.00 0.00 0.00 0.00 0.00 0.00 0.00 0.00 0.00 0.01
0.00 0.00 0.00 0.00 0.00 0.00 0.00 0.00 0.00 0.00 0.00 0.00 0.00 0.00 0.00 0.00 0.00 0.00 0.00 0.00 0.00 0.00 0.00 0.00 0.00 0.00 0.00 0.00 0.00 0.00 0.00 0.00 0.00 0.00 0.00 0.00 0.00 0.00 0.00 0.00 0.00 0.00 0.00 0.01
0.00 0.00 0.00 0.00 0.00 0.00 0.00 0.00 0.00 0.00 0.00 0.00 0.00 0.00 0.00 0.00 0.00 0.00 0.00 0.00 0.00 0.00 0.00 0.00 0.00 0.00 0.00 0.00 0.00 0.00 0.00 0.00 0.00 0.00 0.00 0.00 0.00 0.00 0.00 0.00 0.00 0.00 0.00 0.00
0.00 0.00 0.00 0.00 0.00 0.00 0.00 0.00 0.00 0.00 0.00 0.00 0.00 0.00 0.00 0.00 0.00 0.00 0.00 0.00 0.00 0.00 0.00 0.00 0.00 0.00 0.00 0.00 0.00 0.00 0.00 0.00 0.00 0.00 0.00 0.00 0.00 0.00 0.00 0.00 0.00 0.00 0.00 0.00
0.00 0.00 0.00 0.00 0.00 0.00 0.00 0.00 0.00 0.00 0.00 0.00 0.00 0.00 0.00 0.00 0.00 0.00 0.00 0.00 0.00 0.00 0.00 0.00 0.00 0.00 0.00 0.00 0.00 0.00 0.00 0.00 0.00 0.00 0.00 0.00 0.00 0.00 0.00 0.00 0.00 0.00 0.00 0.00
0.00 0.00 0.00 0.00 0.00 0.00 0.00 0.00 0.00 0.00 0.00 0.00 0.00 0.00 0.00 0.00 0.00 0.00 0.00 0.00 0.00 0.00 0.00 0.00 0.00 0.00 0.00 0.00 0.00 0.00 0.00 0.00 0.00 0.00 0.00 0.00 0.00 0.00 0.00 0.00 0.00 0.00 0.00 0.00
0.00 0.00 0.00 0.00 0.00 0.00 0.00 0.00 0.00 0.00 0.00 0.00 0.00 0.00 0.00 0.00 0.00 0.00 0.00 0.00 0.00 0.00 0.00 0.00 0.00 0.00 0.00 0.00 0.00 0.00 0.00 0.00 0.00 0.00 0.00 0.00 0.00 0.00 0.00 0.00 0.00 0.00 0.00 0.00
0.00 0.00 0.00 0.00 0.00 0.00 0.00 0.00 0.00 0.00 0.00 0.00 0.00 0.00 0.00 0.00 0.00 0.00 0.00 0.00 0.00 0.00 0.00 0.00 0.00 0.00 0.00 0.00 0.00 0.00 0.00 0.00 0.00 0.00 0.00 0.00 0.00 0.00 0.00 0.00 0.00 0.00 0.00 0.00
0.00 0.00 0.00 0.00 0.00 0.00 0.00 0.00 0.00 0.00 0.00 0.00 0.00 0.00 0.00 0.00 0.00 0.00 0.00 0.00 0.00 0.00 0.00 0.00 0.00 0.00 0.00 0.00 0.00 0.00 0.00 0.00 0.00 0.00 0.00 0.00 0.00 0.00 0.00 0.00 0.00 0.00 0.00 0.00
0.00 0.00 0.00 0.00 0.00 0.00 0.00 0.00 0.00 0.00 0.00 0.00 0.00 0.00 0.00 0.00 0.00 0.00 0.00 0.00 0.00 0.00 0.00 0.00 0.00 0.00 0.00 0.00 0.00 0.00 0.00 0.00 0.00 0.00 0.00 0.00 0.00 0.00 0.00 0.00 0.00 0.00 0.00 0.00
0.00 0.00 0.00 0.00 0.00 0.00 0.00 0.00 0.00 0.00 0.00 0.00 0.00 0.00 0.00 0.00 0.00 0.00 0.00 0.00 0.00 0.00 0.00 0.00 0.00 0.00 0.00 0.00 0.00 0.00 0.00 0.00 0.00 0.00 0.00 0.00 0.00 0.00 0.00 0.00 0.00 0.00 0.00 0.00
0.00 0.00 0.00 0.00 0.00 0.00 0.00 0.00 0.00 0.00 0.00 0.00 0.00 0.00 0.00 0.00 0.00 0.00 0.00 0.00 0.00 0.00 0.00 0.00 0.00 0.00 0.00 0.00 0.00 0.00 0.00 0.00 0.00 0.00 0.00 0.00 0.00 0.00 0.00 0.00 0.00 0.00 0.00 0.00
0.00 0.00 0.00 0.00 0.00 0.00 0.00 0.00 0.00 0.00 0.00 0.00 0.00 0.00 0.00 0.00 0.00 0.00 0.00 0.00 0.00 0.00 0.00 0.00 0.00 0.00 0.00 0.00 0.00 0.00 0.00 0.00 0.00 0.00 0.00 0.00 0.00 0.00 0.00 0.00 0.00 0.00 0.00 0.00
0.00 0.00 0.00 0.00 0.00 0.00 0.00 0.00 0.00 0.00 0.00 0.00 0.00 0.00 0.00 0.00 0.00 0.00 0.00 0.00 0.00 0.00 0.00 0.00 0.00 0.00 0.00 0.00 0.00 0.00 0.00 0.00 0.00 0.00 0.00 0.00 0.00 0.00 0.00 0.00 0.00 0.00 0.00 0.00
0.00 0.00 0.00 0.00 0.00 0.00 0.00 0.00 0.00 0.00 0.00 0.00 0.00 0.00 0.00 0.00 0.00 0.00 0.00 0.00 0.00 0.00 0.00 0.00 0.00 0.00 0.00 0.00 0.00 0.00 0.00 0.00 0.00 0.00 0.00 0.00 0.00 0.00 0.00 0.00 0.00 0.00 0.00 0.00
0.00 0.00 0.00 0.00 0.00 0.00 0.00 0.00 0.00 0.00 0.00 0.00 0.00 0.00 0.00 0.00 0.00 0.00 0.00 0.00 0.00 0.00 0.00 0.00 0.00 0.00 0.00 0.00 0.00 0.00 0.00 0.00 0.00 0.00 0.00 0.00 0.00 0.00 0.00 0.00 0.00 0.00 0.00 0.00
0.00 0.00 0.00 0.00 0.00 0.00 0.00 0.00 0.00 0.00 0.00 0.00 0.00 0.00 0.00 0.00 0.00 0.00 0.00 0.00 0.00 0.00 0.00 0.00 0.00 0.00 0.00 0.00 0.00 0.00 0.00 0.00 0.00 0.00 0.00 0.00 0.00 0.00 0.00 0.00 0.00 0.00 0.00 0.00
0.00 0.00 0.00 0.00 0.00 0.00 0.00 0.00 0.00 0.00 0.00 0.00 0.00 0.00 0.00 0.00 0.00 0.00 0.00 0.00 0.00 0.00 0.00 0.00 0.00 0.00 0.00 0.00 0.00 0.00 0.00 0.00 0.00 0.00 0.00 0.00 0.00 0.00 0.00 0.00 0.00 0.00 0.00 0.00
0.00 0.00 0.00 0.00 0.00 0.00 0.00 0.00 0.00 0.00 0.00 0.00 0.00 0.00 0.00 0.00 0.00 0.00 0.00 0.00 0.00 0.00 0.00 0.00 0.00 0.00 0.00 0.00 0.00 0.00 0.00 0.00 0.00 0.00 0.00 0.00 0.00 0.00 0.00 0.00 0.00 0.00 0.00 0.00
0.00 0.00 0.00 0.00 0.00 0.00 0.00 0.00 0.00 0.00 0.00 0.00 0.00 0.00 0.00 0.00 0.00 0.00 0.00 0.00 0.00 0.00 0.00 0.00 0.00 0.00 0.00 0.00 0.00 0.00 0.00 0.00 0.00 0.00 0.00 0.00 0.00 0.00 0.00 0.00 0.00 0.00 0.00 0.00
0.00 0.00 0.00 0.00 0.00 0.00 0.00 0.00 0.00 0.00 0.00 0.00 0.00 0.00 0.00 0.00 0.00 0.00 0.00 0.00 0.00 0.00 0.00 0.00 0.00 0.00 0.00 0.00 0.00 0.00 0.00 0.00 0.00 0.00 0.00 0.00 0.00 0.00 0.00 0.01 0.01 0.01 0.01 0.01
0.00 0.00 0.00 0.00 0.00 0.00 0.00 0.00 0.00 0.00 0.00 0.00 0.00 0.00 0.00 0.00 0.00 0.00 0.00 0.00 0.00 0.00 0.00 0.00 0.00 0.00 0.00 0.00 0.00 0.00 0.00 0.00 0.00 0.00 0.00 0.00 0.00 0.01 0.01 0.01 0.01 0.01 0.01 0.01
0.00 0.00 0.00 0.00 0.00 0.00 0.00 0.00 0.00 0.00 0.00 0.00 0.00 0.00 0.00 0.00 0.00 0.00 0.00 0.00 0.00 0.00 0.00 0.00 0.00 0.00 0.00 0.00 0.00 0.00 0.00 0.00 0.00 0.00 0.00 0.00 0.00 0.01 0.02 0.02 0.03 0.03 0.03 0.03
MSLP
1017.05 1017.39 1017.70 1017.95 1018.12 1018.18 1018.12 1017.92 1017.60 1017.18 1016.69 1016.18 1015.69 1015.28 1014.97 1014.76 1014.67 1014.65 1014.70 1014.76 1014.80 1014.81 1014.77 1014.68 1014.58 1014.46 1014.38 1014.34 1014.35 1014.42 1014.54 1014.66 1014.78 1014.86 1014.89 1014.84 1014.71 1014.51 1014.26 1013.96 1013.63 1013.29 1012.92 1012.54
1016.89 1017.17 1017.41 1017.57 1017.65 1017.63 1017.50 1017.26 1016.93 1016.53 1016.09 1015.65 1015.23 1014.88 1014.61 1014.43 1014.33 1014.29 1014.29 1014.30 1014.30 1014.28 1014.23 1014.16 1014.08 1014.02 1013.99 1014.01 1014.08 1014.20 1014.35 1014.50 1014.64 1014.74 1014.77 1014.73 1014.60 1014.41 1014.14 1013.84 1013.50 1013.13 1012.76 1012.37
1016.68 1016.89 1017.04 1017.12 1017.10 1016.99 1016.79 1016.52 1016.18 1015.80 1015.41 1015.03 1014.69 1014.41 1014.19 1014.03 1013.94 1013.88 1013.85 1013.82 1013.79 1013.75 1013.70 1013.64 1013.60 1013.59 1013.62 1013.70 1013.82 1013.99 1014.17 1014.34 1014.49 1014.58 1014.61 1014.55 1014.42 1014.21 1013.94 1013.62 1013.27 1012.90 1012.53 1012.14
1016.40 1016.54 1016.60 1016.58 1016.47 1016.29 1016.03 1015.72 1015.38 1015.03 1014.69 1014.38 1014.11 1013.89 1013.72 1013.61 1013.52 1013.46 1013.42 1013.36 1013.31 1013.25 1013.20 1013.16 1013.15 1013.18 1013.25 1013.38 1013.54 1013.74 1013.94 1014.12 1014.26 1014.35 1014.35 1014.28 1014.13 1013.91 1013.63 1013.31 1012.97 1012.61 1012.24 1011.88
1016.04 1016.09 1016.07 1015.97 1015.80 1015.56 1015.27 1014.95 1014.62 1014.30 1014.01 1013.76 1013.56 1013.40 1013.29 1013.21 1013.14 1013.09 1013.03 1012.96 1012.89 1012.82 1012.76 1012.72 1012.73 1012.78 1012.88 1013.03 1013.22 1013.42 1013.62 1013.80 1013.93 1013.99 1013.98 1013.89 1013.73 1013.51 1013.23 1012.93 1012.60 1012.27 1011.94 1011.61
1015.57 1015.55 1015.47 1015.32 1015.11 1014.86 1014.56 1014.26 1013.96 1013.69 1013.45 1013.26 1013.12 1013.02 1012.95 1012.90 1012.86 1012.80 1012.73 1012.65 1012.56 1012.47 1012.40 1012.36 1012.35 1012.40 1012.50 1012.65 1012.83 1013.02 1013.20 1013.36 1013.46 1013.51 1013.48 1013.38 1013.23 1013.02 1012.77 1012.50 1012.21 1011.92 1011.64 1011.36
1014.98 1014.92 1014.81 1014.66 1014.46 1014.23 1013.98 1013.73 1013.49 1013.27 1013.10 1012.96 1012.87 1012.81 1012.78 1012.75 1012.71 1012.65 1012.58 1012.48 1012.36 1012.25 1012.15 1012.08 1012.05 1012.07 1012.13 1012.25 1012.39 1012.54 1012.68 1012.80 1012.88 1012.90 1012.87 1012.78 1012.64 1012.47 1012.26 1012.05 1011.83 1011.60 1011.38 1011.15
1014.27 1014.21 1014.13 1014.02 1013.89 1013.74 1013.57 1013.40 1013.24 1013.09 1012.98 1012.90 1012.85 1012.82 1012.80 1012.77 1012.73 1012.67 1012.57 1012.45 1012.31 1012.16 1012.02 1011.91 1011.83 1011.79 1011.80 1011.85 1011.92 1012.01 1012.10 1012.17 1012.21 1012.21 1012.17 1012.10 1012.00 1011.87 1011.74 1011.60 1011.45 1011.31 1011.16 1011.00
1013.48 1013.46 1013.46 1013.45 1013.43 1013.40 1013.35 1013.28 1013.22 1013.16 1013.10 1013.07 1013.04 1013.03 1013.01 1012.98 1012.93 1012.85 1012.73 1012.59 1012.42 1012.23 1012.04 1011.87 1011.72 1011.61 1011.54 1011.50 1011.48 1011.49 1011.50 1011.50 1011.49 1011.47 1011.43 1011.37 1011.31 1011.24 1011.18 1011.13 1011.07 1011.02 1010.96 1010.87
1012.65 1012.73 1012.85 1012.98 1013.10 1013.21 1013.30 1013.36 1013.40 1013.42 1013.42 1013.42 1013.41 1013.40 1013.38 1013.34 1013.27 1013.17 1013.04 1012.87 1012.67 1012.44 1012.21 1011.98 1011.76 1011.56 1011.39 1011.24 1011.12 1011.02 1010.94 1010.86 1010.79 1010.72 1010.67 1010.62 1010.59 1010.58 1010.58 1010.61 1010.65 1010.68 1010.71 1010.71
1011.86 1012.06 1012.32 1012.61 1012.90 1013.16 1013.39 1013.58 1013.71 1013.80 1013.85 1013.88 1013.88 1013.86 1013.83 1013.78 1013.70 1013.59 1013.45 1013.26 1013.05 1012.80 1012.53 1012.24 1011.95 1011.66 1011.39 1011.13 1010.89 1010.67 1010.47 1010.29 1010.14 1010.01 1009.91 1009.85 1009.83 1009.85 1009.91 1010.00 1010.11 1010.24 1010.35 1010.43
1011.15 1011.50 1011.91 1012.36 1012.80 1013.21 1013.57 1013.86 1014.07 1014.22 1014.31 1014.35 1014.35 1014.34 1014.30 1014.24 1014.16 1014.06 1013.92 1013.74 1013.53 1013.26 1012.97 1012.64 1012.29 1011.92 1011.54 1011.17 1010.81 1010.46 1010.14 1009.84 1009.58 1009.36 1009.20 1009.09 1009.04 1009.06 1009.14 1009.27 1009.43 1009.62 1009.81 1009.97
1010.58 1011.07 1011.62 1012.20 1012.78 1013.30 1013.76 1014.12 1014.39 1014.58 1014.69 1014.75 1014.76 1014.74 1014.71 1014.67 1014.61 1014.52 1014.41 1014.26 1014.06 1013.80 1013.50 1013.14 1012.74 1012.30 1011.84 1011.36 1010.87 1010.40 1009.94 1009.52 1009.13 1008.81 1008.54 1008.36 1008.25 1008.22 1008.28 1008.41 1008.59 1008.81 1009.05 1009.28
1010.15 1010.76 1011.43 1012.12 1012.79 1013.39 1013.91 1014.32 1014.63 1014.84 1014.97 1015.03 1015.06 1015.06 1015.05 1015.03 1015.00 1014.96 1014.88 1014.77 1014.60 1014.37 1014.07 1013.70 1013.27 1012.78 1012.24 1011.66 1011.07 1010.48 1009.89 1009.33 1008.82 1008.37 1007.99 1007.69 1007.49 1007.39 1007.38 1007.47 1007.63 1007.85 1008.11 1008.38
1009.86 1010.57 1011.32 1012.08 1012.80 1013.45 1013.99 1014.43 1014.75 1014.97 1015.11 1015.20 1015.24 1015.27 1015.30 1015.32 1015.34 1015.34 1015.32 1015.25 1015.12 1014.91 1014.63 1014.26 1013.81 1013.28 1012.69 1012.04 1011.36 1010.67 1009.97 1009.30 1008.66 1008.08 1007.58 1007.16 1006.85 1006.64 1006.54 1006.55 1006.64 1006.82 1007.06 1007.32
1009.68 1010.45 1011.26 1012.06 1012.81 1013.46 1014.01 1014.45 1014.78 1015.01 1015.16 1015.27 1015.35 1015.41 1015.48 1015.55 1015.62 1015.68 1015.70 1015.67 1015.58 1015.40 1015.13 1014.77 1014.31 1013.76 1013.14 1012.45 1011.71 1010.95 1010.18 1009.41 1008.68 1007.99 1007.37 1006.84 1006.41 1006.08 1005.86 1005.76 1005.76 1005.85 1006.02 1006.24
1009.57 1010.40 1011.24 1012.05 1012.80 1013.45 1013.99 1014.42 1014.74 1014.98 1015.16 1015.30 1015.41 1015.52 1015.64 1015.76 1015.87 1015.97 1016.02 1016.03 1015.95 1015.79 1015.54 1015.18 1014.72 1014.18 1013.54 1012.84 1012.09 1011.29 1010.48 1009.67 1008.88 1008.12 1007.41 1006.78 1006.24 1005.79 1005.46 1005.23 1005.11 1005.08 1005.15 1005.28
1009.54 1010.40 1011.26 1012.06 1012.79 1013.42 1013.95 1014.37 1014.70 1014.95 1015.15 1015.33 1015.48 1015.64 1015.80 1015.95 1016.10 1016.21 1016.29 1016.30 1016.23 1016.07 1015.82 1015.47 1015.02 1014.49 1013.87 1013.19 1012.46 1011.68 1010.87 1010.06 1009.25 1008.46 1007.71 1007.02 1006.39 1005.85 1005.40 1005.05 1004.79 1004.63 1004.56 1004.56
1009.58 1010.46 1011.31 1012.10 1012.81 1013.42 1013.93 1014.35 1014.68 1014.95 1015.18 1015.39 1015.58 1015.77 1015.96 1016.14 1016.29 1016.41 1016.48 1016.48 1016.40 1016.23 1015.97 1015.62 1015.19 1014.69 1014.11 1013.48 1012.79 1012.07 1011.32 1010.55 1009.77 1009.00 1008.25 1007.53 1006.86 1006.25 1005.71 1005.24 1004.86 1004.57 1004.35 1004.20
1009.70 1010.58 1011.41 1012.18 1012.87 1013.46 1013.95 1014.36 1014.70 1014.99 1015.25 1015.49 1015.71 1015.92 1016.12 1016.30 1016.45 1016.55 1016.59 1016.56 1016.45 1016.26 1015.99 1015.65 1015.24 1014.77 1014.25 1013.68 1013.08 1012.44 1011.77 1011.08 1010.38 1009.66 1008.94 1008.24 1007.55 1006.91 1006.31 1005.77 1005.28 1004.86 1004.50 1004.20
1009.92 1010.77 1011.58 1012.31 1012.96 1013.52 1014.00 1014.40 1014.75 1015.06 1015.33 1015.59 1015.83 1016.05 1016.25 1016.42 1016.54 1016.60 1016.60 1016.53 1016.38 1016.17 1015.89 1015.55 1015.17 1014.75 1014.29 1013.80 1013.28 1012.74 1012.17 1011.58 1010.96 1010.32 1009.67 1009.01 1008.35 1007.71 1007.09 1006.50 1005.94 1005.43 1004.95 1004.52
1010.22 1011.03 1011.79 1012.47 1013.08 1013.60 1014.06 1014.45 1014.79 1015.10 1015.39 1015.66 1015.90 1016.12 1016.30 1016.44 1016.53 1016.55 1016.51 1016.40 1016.22 1015.98 1015.69 1015.37 1015.01 1014.63 1014.23 1013.82 1013.39 1012.94 1012.46 1011.96 1011.44 1010.88 1010.30 1009.70 1009.10 1008.48 1007.87 1007.27 1006.69 1006.12 1005.57 1005.04
1010.60 1011.34 1012.02 1012.64 1013.19 1013.66 1014.08 1014.45 1014.79 1015.10 1015.38 1015.64 1015.88 1016.09 1016.25 1016.36 1016.41 1016.40 1016.32 1016.17 1015.96 1015.71 1015.42 1015.10 1014.77 1014.43 1014.08 1013.73 1013.36 1012.98 1012.59 1012.16 1011.71 1011.23 1010.72 1010.19 1009.64 1009.08 1008.51 1007.94 1007.37 1006.79 1006.22 1005.63
1010.98 1011.63 1012.23 1012.77 1013.25 1013.67 1014.05 1014.39 1014.70 1015.00 1015.27 1015.53 1015.75 1015.94 1016.08 1016.16 1016.18 1016.14 1016.03 1015.86 1015.64 1015.38 1015.09 1014.78 1014.47 1014.16 1013.84 1013.52 1013.20 1012.86 1012.51 1012.13 1011.73 1011.30 1010.85 1010.38 1009.90 1009.40 1008.89 1008.38 1007.85 1007.30 1006.74 1006.15
1011.31 1011.86 1012.36 1012.82 1013.23 1013.59 1013.93 1014.24 1014.53 1014.80 1015.06 1015.30 1015.51 1015.68 1015.79 1015.86 1015.86 1015.79 1015.66 1015.48 1015.26 1015.00 1014.71 1014.42 1014.12 1013.82 1013.51 1013.21 1012.90 1012.57 1012.23 1011.86 1011.48 1011.08 1010.67 1010.25 1009.82 1009.38 1008.95 1008.50 1008.05 1007.57 1007.05 1006.49
1011.51 1011.97 1012.38 1012.76 1013.10 1013.42 1013.71 1013.99 1014.26 1014.52 1014.77 1014.99 1015.18 1015.33 1015.43 1015.47 1015.46 1015.38 1015.25 1015.06 1014.84 1014.59 1014.31 1014.02 1013.73 1013.42 1013.12 1012.80 1012.47 1012.12 1011.76 1011.39 1011.00 1010.61 1010.21 1009.82 1009.43 1009.06 1008.69 1008.32 1007.94 1007.54 1007.08 1006.57
1011.54 1011.91 1012.26 1012.58 1012.87 1013.15 1013.42 1013.68 1013.94 1014.19 1014.42 1014.63 1014.81 1014.94 1015.03 1015.06 1015.03 1014.94 1014.81 1014.62 1014.40 1014.15 1013.88 1013.60 1013.30 1012.98 1012.66 1012.32 1011.95 1011.58 1011.18 1010.77 1010.36 1009.95 1009.56 1009.18 1008.82 1008.50 1008.18 1007.88 1007.57 1007.22 1006.83 1006.36
Thickness
5727 5726 5726 5724 5720 5714 5716 5722 5719 5726 5726 5733 5739 5737 5737 5735 5733 5728 5725 5722 5719 5715 5713 5709 5706 5702 5698 5692 5687 5682 5677 5671 5667 5663 5658 5653 5649 5646 5643 5639 5637 5635 5632 5630
5723 5724 5724 5723 5726 5722 5719 5722 5722 5724 5727 5744 5744 5741 5739 5739 5735 5731 5728 5726 5723 5720 5716 5712 5710 5706 5701 5696 5691 5685 5680 5675 5669 5664 5659 5654 5651 5647 5643 5639 5636 5633 5630 5628
5725 5723 5721 5722 5737 5730 5728 5731 5730 5727 5737 5744 5741 5741 5740 5741 5738 5735 5733 5730 5727 5724 5720 5716 5714 5709 5703 5699 5694 5688 5683 5677 5671 5666 5661 5656 5652 5648 5644 5641 5636 5632 5629 5626
5725 5720 5709 5741 5749 5745 5737 5738 5740 5739 5743 5743 5742 5743 5744 5744 5741 5739 5737 5733 5730 5727 5723 5720 5717 5711 5706 5700 5695 5690 5685 5679 5673 5668 5663 5658 5653 5648 5645 5642 5637 5632 5629 5626
5723 5720 5727 5738 5742 5740 5736 5739 5747 5743 5744 5745 5745 5744 5748 5748 5745 5743 5741 5737 5733 5730 5727 5722 5718 5713 5707 5702 5697 5691 5686 5681 5676 5671 5665 5660 5655 5651 5647 5642 5638 5634 5630 5626
5719 5716 5720 5740 5748 5749 5742 5734 5749 5747 5744 5744 5742 5741 5743 5746 5744 5742 5740 5737 5733 5730 5726 5722 5718 5713 5706 5702 5698 5693 5688 5683 5679 5673 5667 5662 5658 5654 5649 5644 5639 5635 5632 5628
5719 5719 5734 5747 5745 5742 5728 5737 5749 5748 5746 5744 5742 5744 5745 5744 5742 5740 5737 5734 5731 5728 5724 5721 5718 5712 5706 5703 5700 5696 5691 5685 5680 5675 5670 5665 5660 5656 5652 5648 5643 5639 5636 5632
5721 5718 5730 5742 5741 5740 5745 5750 5748 5746 5746 5743 5742 5742 5741 5740 5738 5737 5735 5732 5728 5725 5722 5719 5716 5710 5706 5703 5701 5697 5690 5685 5681 5677 5673 5668 5662 5658 5655 5650 5647 5644 5640 5637
5737 5738 5739 5739 5743 5740 5739 5742 5744 5743 5742 5739 5737 5737 5735 5735 5734 5732 5731 5729 5726 5722 5719 5718 5715 5709 5705 5704 5701 5696 5690 5686 5682 5679 5675 5670 5666 5662 5658 5654 5650 5648 5644 5640
5734 5738 5735 5732 5732 5731 5732 5734 5736 5735 5735 5734 5732 5731 5729 5728 5727 5726 5725 5724 5722 5719 5716 5715 5713 5709 5705 5704 5700 5695 5691 5687 5685 5681 5678 5674 5669 5665 5661 5657 5654 5650 5647 5643
5734 5735 5727 5725 5725 5725 5725 5727 5727 5727 5727 5726 5725 5723 5722 5721 5719 5718 5717 5716 5715 5713 5710 5709 5708 5706 5703 5701 5698 5694 5691 5689 5686 5683 5680 5675 5672 5668 5664 5661 5656 5651 5649 5646
5737 5743 5737 5732 5724 5719 5718 5718 5718 5718 5715 5714 5714 5713 5713 5711 5708 5707 5707 5707 5706 5704 5702 5702 5701 5699 5698 5696 5694 5691 5690 5690 5687 5684 5680 5676 5673 5671 5666 5660 5656 5650 5646 5642
5737 5732 5730 5722 5715 5712 5711 5709 5708 5707 5706 5704 5703 5702 5701 5699 5697 5696 5696 5695 5694 5692 5691 5691 5690 5688 5688 5688 5687 5686 5686 5686 5684 5682 5680 5677 5674 5671 5669 5665 5657 5653 5649 5645
5721 5719 5712 5710 5707 5704 5702 5699 5698 5696 5694 5693 5691 5690 5689 5688 5685 5683 5682 5681 5681 5680 5678 5677 5676 5675 5675 5677 5678 5679 5680 5680 5679 5678 5677 5676 5675 5673 5670 5667 5665 5663 5657 5650
5711 5713 5711 5704 5698 5694 5692 5690 5688 5686 5683 5681 5679 5678 5676 5674 5671 5669 5668 5668 5668 5666 5663 5662 5662 5661 5662 5664 5667 5670 5672 5673 5673 5674 5674 5673 5673 5671 5670 5668 5666 5664 5662 5657
5703 5698 5695 5692 5688 5685 5683 5681 5678 5674 5671 5669 5666 5664 5662 5661 5658 5656 5654 5653 5652 5650 5647 5647 5647 5647 5649 5652 5655 5659 5661 5661 5661 5665 5667 5669 5668 5668 5667 5667 5666 5664 5662 5661
5694 5688 5685 5682 5678 5675 5672 5670 5666 5662 5659 5656 5653 5651 5650 5648 5646 5642 5640 5638 5637 5635 5633 5632 5632 5634 5636 5639 5643 5647 5650 5653 5653 5656 5659 5661 5662 5663 5663 5663 5663 5663 5663 5662
5696 5690 5685 5678 5670 5664 5658 5654 5651 5648 5645 5641 5639 5638 5636 5634 5631 5628 5626 5624 5623 5621 5619 5619 5618 5622 5624 5627 5629 5633 5638 5641 5643 5646 5648 5650 5652 5654 5656 5657 5658 5658 5659 5658
5678 5673 5668 5661 5656 5650 5645 5641 5637 5633 5630 5628 5626 5623 5620 5618 5616 5614 5612 5611 5609 5608 5606 5605 5605 5609 5612 5613 5614 5620 5623 5625 5628 5631 5634 5635 5638 5641 5644 5646 5648 5649 5651 5651
5658 5653 5648 5642 5638 5634 5629 5625 5622 5618 5616 5614 5612 5609 5606 5603 5601 5600 5600 5598 5594 5592 5592 5591 5595 5597 5598 5599 5599 5604 5606 5608 5611 5614 5616 5619 5621 5624 5627 5630 5633 5636 5638 5640
5639 5634 5629 5625 5620 5616 5613 5610 5607 5604 5600 5599 5598 5595 5592 5590 5588 5587 5587 5586 5582 5579 5580 5581 5583 5583 5584 5583 5586 5588 5589 5591 5593 5595 5597 5599 5601 5604 5607 5611 5614 5618 5621 5625
5620 5616 5612 5607 5603 5600 5597 5595 5592 5589 5586 5584 5582 5580 5578 5577 5576 5575 5574 5571 5570 5567 5569 5570 5570 5568 5567 5569 5573 5573 5574 5574 5575 5576 5577 5579 5580 5582 5585 5587 5590 5594 5598 5603
5602 5598 5595 5591 5589 5586 5582 5580 5578 5575 5573 5571 5569 5568 5567 5565 5564 5564 5563 5561 5559 5556 5556 5557 5554 5553 5553 5558 5559 5559 5559 5558 5558 5558 5558 5558 5559 5560 5561 5563 5565 5567 5571 5576
5584 5581 5579 5576 5574 5571 5569 5567 5564 5562 5560 5558 5557 5555 5555 5554 5554 5553 5551 5548 5545 5543 5545 5544 5541 5541 5541 5544 5544 5544 5543 5542 5540 5539 5539 5538 5538 5537 5538 5539 5540 5542 5544 5548
5567 5565 5562 5561 5560 5559 5558 5555 5553 5550 5549 5548 5547 5545 5544 5543 5542 5542 5540 5538 5536 5533 5535 5535 5532 5529 5530 5531 5530 5528 5527 5525 5522 5520 5519 5518 5517 5516 5516 5515 5516 5517 5519 5522
5552 5551 5549 5549 5550 5548 5547 5544 5543 5542 5541 5540 5539 5538 5536 5534 5531 5530 5528 5528 5527 5524 5523 5523 5522 5520 5519 5517 5514 5512 5510 5509 5507 5504 5502 5499 5498 5496 5494 5493 5492 5493 5494 5495
5539 5538 5536 5537 5535 5535 5535 5534 5534 5533 5532 5530 5529 5528 5527 5525 5523 5521 5519 5518 5517 5515 5513 5512 5510 5508 5505 5502 5499 5497 5495 5492 5489 5486 5483 5481 5478 5475 5473 5471 5470 5470 5470 5471